Year,Month,Day,Hour,Minute,Value (Times are PST for temperature in C)
2013,07,03,00,00,15.60
2013,07,03,00,01,15.60
2013,07,03,00,02,15.60
2013,07,03,00,03,15.50
2013,07,03,00,04,15.50
2013,07,03,00,05,15.50
2013,07,03,00,06,15.50
2013,07,03,00,07,15.40
2013,07,03,00,08,15.30
2013,07,03,00,09,15.30
2013,07,03,00,10,15.20
2013,07,03,00,11,15.10
2013,07,03,00,12,15.10
2013,07,03,00,13,15.00
2013,07,03,00,14,15.00
2013,07,03,00,15,14.90
2013,07,03,00,16,14.90
2013,07,03,00,17,14.80
2013,07,03,00,18,14.80
2013,07,03,00,19,14.80
2013,07,03,00,20,14.80
2013,07,03,00,21,14.80
2013,07,03,00,22,14.80
2013,07,03,00,23,14.80
2013,07,03,00,24,14.80
2013,07,03,00,25,14.90
2013,07,03,00,26,14.90
2013,07,03,00,27,14.90
2013,07,03,00,28,14.90
2013,07,03,00,29,14.90
2013,07,03,00,30,14.90
2013,07,03,00,31,14.90
2013,07,03,00,32,15.00
2013,07,03,00,33,15.00
2013,07,03,00,34,15.00
2013,07,03,00,35,15.00
2013,07,03,00,36,15.00
2013,07,03,00,37,14.90
2013,07,03,00,38,14.90
2013,07,03,00,39,14.90
2013,07,03,00,40,14.90
2013,07,03,00,41,14.90
2013,07,03,00,42,14.90
2013,07,03,00,43,14.90
2013,07,03,00,44,14.90
2013,07,03,00,45,14.80
2013,07,03,00,46,14.80
2013,07,03,00,47,14.80
2013,07,03,00,48,14.80
2013,07,03,00,49,14.80
2013,07,03,00,50,14.80
2013,07,03,00,51,14.80
2013,07,03,00,52,14.80
2013,07,03,00,53,14.80
2013,07,03,00,54,14.80
2013,07,03,00,55,14.80
2013,07,03,00,56,14.80
2013,07,03,00,57,14.80
2013,07,03,00,58,14.70
2013,07,03,00,59,14.70
2013,07,03,01,00,14.70
2013,07,03,01,01,14.70
2013,07,03,01,02,14.70
2013,07,03,01,03,14.70
2013,07,03,01,04,14.60
2013,07,03,01,05,14.60
2013,07,03,01,06,14.60
2013,07,03,01,07,14.60
2013,07,03,01,08,14.60
2013,07,03,01,09,14.60
2013,07,03,01,10,14.60
2013,07,03,01,11,14.60
2013,07,03,01,12,14.60
2013,07,03,01,13,14.50
2013,07,03,01,14,14.50
2013,07,03,01,15,14.50
2013,07,03,01,16,14.50
2013,07,03,01,17,14.50
2013,07,03,01,18,14.50
2013,07,03,01,19,14.50
2013,07,03,01,20,14.50
2013,07,03,01,21,14.40
2013,07,03,01,22,14.40
2013,07,03,01,23,14.30
2013,07,03,01,24,14.30
2013,07,03,01,25,14.20
2013,07,03,01,26,14.20
2013,07,03,01,27,14.20
2013,07,03,01,28,14.20
2013,07,03,01,29,14.20
2013,07,03,01,30,14.20
2013,07,03,01,31,14.20
2013,07,03,01,32,14.20
2013,07,03,01,33,14.10
2013,07,03,01,34,14.10
2013,07,03,01,35,14.00
2013,07,03,01,36,14.00
2013,07,03,01,37,14.00
2013,07,03,01,38,14.00
2013,07,03,01,39,13.90
2013,07,03,01,40,13.90
2013,07,03,01,41,13.90
2013,07,03,01,42,13.90
2013,07,03,01,43,13.90
2013,07,03,01,44,13.90
2013,07,03,01,45,13.90
2013,07,03,01,46,13.90
2013,07,03,01,47,13.90
2013,07,03,01,48,13.90
2013,07,03,01,49,13.90
2013,07,03,01,50,13.90
2013,07,03,01,51,13.90
2013,07,03,01,52,13.80
2013,07,03,01,53,13.80
2013,07,03,01,54,13.80
2013,07,03,01,55,13.80
2013,07,03,01,56,13.70
2013,07,03,01,57,13.70
2013,07,03,01,58,13.70
2013,07,03,01,59,13.70
2013,07,03,02,00,13.70
2013,07,03,02,01,13.70
2013,07,03,02,02,13.70
2013,07,03,02,03,13.70
2013,07,03,02,04,13.70
2013,07,03,02,05,13.70
2013,07,03,02,06,13.70
2013,07,03,02,07,13.70
2013,07,03,02,08,13.70
2013,07,03,02,09,13.70
2013,07,03,02,10,13.70
2013,07,03,02,11,13.70
2013,07,03,02,12,13.70
2013,07,03,02,13,13.70
2013,07,03,02,14,13.70
2013,07,03,02,15,13.70
2013,07,03,02,16,13.70
2013,07,03,02,17,13.70
2013,07,03,02,18,13.60
2013,07,03,02,19,13.60
2013,07,03,02,20,13.60
2013,07,03,02,21,13.50
2013,07,03,02,22,13.50
2013,07,03,02,23,13.50
2013,07,03,02,24,13.50
2013,07,03,02,25,13.60
2013,07,03,02,26,13.60
2013,07,03,02,27,13.60
2013,07,03,02,28,13.60
2013,07,03,02,29,13.60
2013,07,03,02,30,13.60
2013,07,03,02,31,13.60
2013,07,03,02,32,13.50
2013,07,03,02,33,13.50
2013,07,03,02,34,13.50
2013,07,03,02,35,13.50
2013,07,03,02,36,13.50
2013,07,03,02,37,13.50
2013,07,03,02,38,13.50
2013,07,03,02,39,13.50
2013,07,03,02,40,13.50
2013,07,03,02,41,13.50
2013,07,03,02,42,13.50
2013,07,03,02,43,13.50
2013,07,03,02,44,13.50
2013,07,03,02,45,13.50
2013,07,03,02,46,13.50
2013,07,03,02,47,13.50
2013,07,03,02,48,13.50
2013,07,03,02,49,13.40
2013,07,03,02,50,13.40
2013,07,03,02,51,13.40
2013,07,03,02,52,13.40
2013,07,03,02,53,13.40
2013,07,03,02,54,13.40
2013,07,03,02,55,13.40
2013,07,03,02,56,13.40
2013,07,03,02,57,13.40
2013,07,03,02,58,13.40
2013,07,03,02,59,13.40
2013,07,03,03,00,13.40
2013,07,03,03,01,13.40
2013,07,03,03,02,13.40
2013,07,03,03,03,13.40
2013,07,03,03,04,13.40
2013,07,03,03,05,13.40
2013,07,03,03,06,13.40
2013,07,03,03,07,13.40
2013,07,03,03,08,13.40
2013,07,03,03,09,13.40
2013,07,03,03,10,13.40
2013,07,03,03,11,13.40
2013,07,03,03,12,13.40
2013,07,03,03,13,13.40
2013,07,03,03,14,13.40
2013,07,03,03,15,13.40
2013,07,03,03,16,13.40
2013,07,03,03,17,13.40
2013,07,03,03,18,13.40
2013,07,03,03,19,13.40
2013,07,03,03,20,13.40
2013,07,03,03,21,13.40
2013,07,03,03,22,13.40
2013,07,03,03,23,13.40
2013,07,03,03,24,13.40
2013,07,03,03,25,13.40
2013,07,03,03,26,13.50
2013,07,03,03,27,13.50
2013,07,03,03,28,13.50
2013,07,03,03,29,13.50
2013,07,03,03,30,13.50
2013,07,03,03,31,13.50
2013,07,03,03,32,13.50
2013,07,03,03,33,13.40
2013,07,03,03,34,13.50
2013,07,03,03,35,13.50
2013,07,03,03,36,13.50
2013,07,03,03,37,13.50
2013,07,03,03,38,13.50
2013,07,03,03,39,13.50
2013,07,03,03,40,13.50
2013,07,03,03,41,13.50
2013,07,03,03,42,13.50
2013,07,03,03,43,13.50
2013,07,03,03,44,13.40
2013,07,03,03,45,13.50
2013,07,03,03,46,13.50
2013,07,03,03,47,13.50
2013,07,03,03,48,13.50
2013,07,03,03,49,13.40
2013,07,03,03,50,13.40
2013,07,03,03,51,13.40
2013,07,03,03,52,13.40
2013,07,03,03,53,13.30
2013,07,03,03,54,13.30
2013,07,03,03,55,13.30
2013,07,03,03,56,13.30
2013,07,03,03,57,13.30
2013,07,03,03,58,13.30
2013,07,03,03,59,13.30
2013,07,03,04,00,13.30
2013,07,03,04,01,13.30
2013,07,03,04,02,13.30
2013,07,03,04,03,13.30
2013,07,03,04,04,13.30
2013,07,03,04,05,13.30
2013,07,03,04,06,13.30
2013,07,03,04,07,13.30
2013,07,03,04,08,13.30
2013,07,03,04,09,13.30
2013,07,03,04,10,13.30
2013,07,03,04,11,13.30
2013,07,03,04,12,13.20
2013,07,03,04,13,13.20
2013,07,03,04,14,13.20
2013,07,03,04,15,13.10
2013,07,03,04,16,13.10
2013,07,03,04,17,13.10
2013,07,03,04,18,13.00
2013,07,03,04,19,13.00
2013,07,03,04,20,13.00
2013,07,03,04,21,13.00
2013,07,03,04,22,13.00
2013,07,03,04,23,12.90
2013,07,03,04,24,12.90
2013,07,03,04,25,12.80
2013,07,03,04,26,12.80
2013,07,03,04,27,12.80
2013,07,03,04,28,12.80
2013,07,03,04,29,12.80
2013,07,03,04,30,12.70
2013,07,03,04,31,12.70
2013,07,03,04,32,12.70
2013,07,03,04,33,12.70
2013,07,03,04,34,12.70
2013,07,03,04,35,12.70
2013,07,03,04,36,12.60
2013,07,03,04,37,12.60
2013,07,03,04,38,12.50
2013,07,03,04,39,12.50
2013,07,03,04,40,12.40
2013,07,03,04,41,12.40
2013,07,03,04,42,12.40
2013,07,03,04,43,12.40
2013,07,03,04,44,12.40
2013,07,03,04,45,12.40
2013,07,03,04,46,12.40
2013,07,03,04,47,12.40
2013,07,03,04,48,12.40
2013,07,03,04,49,12.40
2013,07,03,04,50,12.40
2013,07,03,04,51,12.40
2013,07,03,04,52,12.40
2013,07,03,04,53,12.40
2013,07,03,04,54,12.40
2013,07,03,04,55,12.40
2013,07,03,04,56,12.30
2013,07,03,04,57,12.30
2013,07,03,04,58,12.30
2013,07,03,04,59,12.30
2013,07,03,05,00,12.30
2013,07,03,05,01,12.30
2013,07,03,05,02,12.20
2013,07,03,05,03,12.20
2013,07,03,05,04,12.10
2013,07,03,05,05,12.00
2013,07,03,05,06,12.00
2013,07,03,05,07,11.90
2013,07,03,05,08,11.80
2013,07,03,05,09,11.80
2013,07,03,05,10,11.70
2013,07,03,05,11,11.60
2013,07,03,05,12,11.60
2013,07,03,05,13,11.60
2013,07,03,05,14,11.50
2013,07,03,05,15,11.40
2013,07,03,05,16,11.40
2013,07,03,05,17,11.40
2013,07,03,05,18,11.30
2013,07,03,05,19,11.30
2013,07,03,05,20,11.20
2013,07,03,05,21,11.20
2013,07,03,05,22,11.20
2013,07,03,05,23,11.10
2013,07,03,05,24,11.10
2013,07,03,05,25,11.10
2013,07,03,05,26,11.10
2013,07,03,05,27,11.10
2013,07,03,05,28,11.10
2013,07,03,05,29,10.90
2013,07,03,05,30,10.90
2013,07,03,05,31,10.90
2013,07,03,05,32,10.90
2013,07,03,05,33,10.90
2013,07,03,05,34,10.90
2013,07,03,05,35,10.90
2013,07,03,05,36,10.90
2013,07,03,05,37,10.90
2013,07,03,05,38,10.90
2013,07,03,05,39,10.90
2013,07,03,05,40,10.90
2013,07,03,05,41,10.90
2013,07,03,05,42,10.90
2013,07,03,05,43,10.90
2013,07,03,05,44,10.90
2013,07,03,05,45,10.90
2013,07,03,05,46,11.00
2013,07,03,05,47,11.10
2013,07,03,05,48,11.10
2013,07,03,05,49,11.10
2013,07,03,05,50,11.10
2013,07,03,05,51,11.10
2013,07,03,05,52,11.20
2013,07,03,05,53,11.20
2013,07,03,05,54,11.30
2013,07,03,05,55,11.30
2013,07,03,05,56,11.30
2013,07,03,05,57,11.30
2013,07,03,05,58,11.40
2013,07,03,05,59,11.40
2013,07,03,06,00,11.40
2013,07,03,06,01,11.40
2013,07,03,06,02,11.40
2013,07,03,06,03,11.40
2013,07,03,06,04,11.40
2013,07,03,06,05,11.40
2013,07,03,06,06,11.40
2013,07,03,06,07,11.40
2013,07,03,06,08,11.40
2013,07,03,06,09,11.40
2013,07,03,06,10,11.40
2013,07,03,06,11,11.40
2013,07,03,06,12,11.40
2013,07,03,06,13,11.40
2013,07,03,06,14,11.50
2013,07,03,06,15,11.60
2013,07,03,06,16,11.60
2013,07,03,06,17,11.60
2013,07,03,06,18,11.60
2013,07,03,06,19,11.60
2013,07,03,06,20,11.60
2013,07,03,06,21,11.60
2013,07,03,06,22,11.60
2013,07,03,06,23,11.60
2013,07,03,06,24,11.60
2013,07,03,06,25,11.60
2013,07,03,06,26,11.60
2013,07,03,06,27,11.60
2013,07,03,06,28,11.70
2013,07,03,06,29,11.80
2013,07,03,06,30,11.80
2013,07,03,06,31,11.90
2013,07,03,06,32,12.00
2013,07,03,06,33,12.10
2013,07,03,06,34,12.10
2013,07,03,06,35,12.20
2013,07,03,06,36,12.20
2013,07,03,06,37,12.30
2013,07,03,06,38,12.30
2013,07,03,06,39,12.40
2013,07,03,06,40,12.40
2013,07,03,06,41,12.50
2013,07,03,06,42,12.50
2013,07,03,06,43,12.60
2013,07,03,06,44,12.60
2013,07,03,06,45,12.70
2013,07,03,06,46,12.70
2013,07,03,06,47,12.80
2013,07,03,06,48,12.80
2013,07,03,06,49,12.80
2013,07,03,06,50,12.80
2013,07,03,06,51,12.80
2013,07,03,06,52,12.80
2013,07,03,06,53,12.80
2013,07,03,06,54,12.80
2013,07,03,06,55,12.80
2013,07,03,06,56,12.90
2013,07,03,06,57,12.90
2013,07,03,06,58,13.00
2013,07,03,06,59,13.00
2013,07,03,07,00,13.10
2013,07,03,07,01,13.10
2013,07,03,07,02,13.20
2013,07,03,07,03,13.30
2013,07,03,07,04,13.30
2013,07,03,07,05,13.30
2013,07,03,07,06,13.30
2013,07,03,07,07,13.30
2013,07,03,07,08,13.40
2013,07,03,07,09,13.50
2013,07,03,07,10,13.50
2013,07,03,07,11,13.60
2013,07,03,07,12,13.70
2013,07,03,07,13,13.70
2013,07,03,07,14,13.80
2013,07,03,07,15,13.90
2013,07,03,07,16,14.00
2013,07,03,07,17,14.10
2013,07,03,07,18,14.20
2013,07,03,07,19,14.30
2013,07,03,07,20,14.40
2013,07,03,07,21,14.50
2013,07,03,07,22,14.60
2013,07,03,07,23,14.70
2013,07,03,07,24,14.80
2013,07,03,07,25,14.80
2013,07,03,07,26,14.90
2013,07,03,07,27,15.00
2013,07,03,07,28,15.10
2013,07,03,07,29,15.10
2013,07,03,07,30,15.20
2013,07,03,07,31,15.30
2013,07,03,07,32,15.40
2013,07,03,07,33,15.40
2013,07,03,07,34,15.40
2013,07,03,07,35,15.40
2013,07,03,07,36,15.40
2013,07,03,07,37,15.50
2013,07,03,07,38,15.50
2013,07,03,07,39,15.60
2013,07,03,07,40,15.60
2013,07,03,07,41,15.70
2013,07,03,07,42,15.70
2013,07,03,07,43,15.70
2013,07,03,07,44,15.70
2013,07,03,07,45,15.70
2013,07,03,07,46,15.70
2013,07,03,07,47,15.80
2013,07,03,07,48,15.80
2013,07,03,07,49,15.80
2013,07,03,07,50,15.90
2013,07,03,07,51,16.00
2013,07,03,07,52,16.10
2013,07,03,07,53,16.10
2013,07,03,07,54,16.10
2013,07,03,07,55,16.10
2013,07,03,07,56,16.10
2013,07,03,07,57,16.10
2013,07,03,07,58,16.20
2013,07,03,07,59,16.30
2013,07,03,08,00,16.30
2013,07,03,08,01,16.30
2013,07,03,08,02,16.30
2013,07,03,08,03,16.40
2013,07,03,08,04,16.50
2013,07,03,08,05,16.60
2013,07,03,08,06,16.70
2013,07,03,08,07,16.80
2013,07,03,08,08,17.00
2013,07,03,08,09,17.00
2013,07,03,08,10,17.20
2013,07,03,08,11,17.30
2013,07,03,08,12,17.30
2013,07,03,08,13,17.40
2013,07,03,08,14,17.50
2013,07,03,08,15,17.50
2013,07,03,08,16,17.60
2013,07,03,08,17,17.70
2013,07,03,08,18,17.70
2013,07,03,08,19,17.80
2013,07,03,08,20,17.80
2013,07,03,08,21,17.70
2013,07,03,08,22,17.70
2013,07,03,08,23,17.70
2013,07,03,08,24,17.80
2013,07,03,08,25,17.80
2013,07,03,08,26,17.80
2013,07,03,08,27,17.90
2013,07,03,08,28,17.90
2013,07,03,08,29,17.90
2013,07,03,08,30,17.90
2013,07,03,08,31,17.90
2013,07,03,08,32,17.90
2013,07,03,08,33,18.00
2013,07,03,08,34,18.10
2013,07,03,08,35,18.10
2013,07,03,08,36,18.10
2013,07,03,08,37,18.00
2013,07,03,08,38,17.90
2013,07,03,08,39,17.90
2013,07,03,08,40,17.90
2013,07,03,08,41,17.90
2013,07,03,08,42,17.90
2013,07,03,08,43,17.90
2013,07,03,08,44,17.90
2013,07,03,08,45,17.90
2013,07,03,08,46,18.00
2013,07,03,08,47,18.10
2013,07,03,08,48,18.10
2013,07,03,08,49,18.10
2013,07,03,08,50,18.20
2013,07,03,08,51,18.20
2013,07,03,08,52,18.20
2013,07,03,08,53,18.30
2013,07,03,08,54,18.40
2013,07,03,08,55,18.40
2013,07,03,08,56,18.50
2013,07,03,08,57,18.50
2013,07,03,08,58,18.60
2013,07,03,08,59,18.60
2013,07,03,09,00,18.70
2013,07,03,09,01,18.70
2013,07,03,09,02,18.80
2013,07,03,09,03,18.80
2013,07,03,09,04,18.80
2013,07,03,09,05,18.80
2013,07,03,09,06,18.80
2013,07,03,09,07,18.90
2013,07,03,09,08,19.00
2013,07,03,09,09,19.10
2013,07,03,09,10,19.10
2013,07,03,09,11,19.20
2013,07,03,09,12,19.20
2013,07,03,09,13,19.30
2013,07,03,09,14,19.30
2013,07,03,09,15,19.30
2013,07,03,09,16,19.40
2013,07,03,09,17,19.30
2013,07,03,09,18,19.20
2013,07,03,09,19,19.20
2013,07,03,09,20,19.20
2013,07,03,09,21,19.10
2013,07,03,09,22,19.10
2013,07,03,09,23,19.10
2013,07,03,09,24,19.10
2013,07,03,09,25,19.10
2013,07,03,09,26,19.10
2013,07,03,09,27,19.30
2013,07,03,09,28,19.30
2013,07,03,09,29,19.30
2013,07,03,09,30,19.30
2013,07,03,09,31,19.30
2013,07,03,09,32,19.30
2013,07,03,09,33,19.40
2013,07,03,09,34,19.50
2013,07,03,09,35,19.60
2013,07,03,09,36,19.60
2013,07,03,09,37,19.60
2013,07,03,09,38,19.60
2013,07,03,09,39,19.70
2013,07,03,09,40,19.80
2013,07,03,09,41,19.80
2013,07,03,09,42,19.90
2013,07,03,09,43,19.80
2013,07,03,09,44,19.70
2013,07,03,09,45,19.60
2013,07,03,09,46,19.70
2013,07,03,09,47,19.70
2013,07,03,09,48,19.90
2013,07,03,09,49,19.90
2013,07,03,09,50,19.90
2013,07,03,09,51,20.10
2013,07,03,09,52,20.10
2013,07,03,09,53,20.10
2013,07,03,09,54,20.00
2013,07,03,09,55,19.90
2013,07,03,09,56,19.80
2013,07,03,09,57,19.60
2013,07,03,09,58,19.50
2013,07,03,09,59,19.50
2013,07,03,10,00,19.50
2013,07,03,10,01,19.50
2013,07,03,10,02,19.60
2013,07,03,10,03,19.60
2013,07,03,10,04,19.60
2013,07,03,10,05,19.60
2013,07,03,10,06,19.70
2013,07,03,10,07,19.70
2013,07,03,10,08,19.80
2013,07,03,10,09,19.80
2013,07,03,10,10,19.80
2013,07,03,10,11,19.90
2013,07,03,10,12,20.00
2013,07,03,10,13,20.10
2013,07,03,10,14,20.10
2013,07,03,10,15,20.10
2013,07,03,10,16,20.10
2013,07,03,10,17,20.10
2013,07,03,10,18,20.00
2013,07,03,10,19,19.90
2013,07,03,10,20,19.80
2013,07,03,10,21,19.70
2013,07,03,10,22,19.60
2013,07,03,10,23,19.50
2013,07,03,10,24,19.40
2013,07,03,10,25,19.50
2013,07,03,10,26,19.50
2013,07,03,10,27,19.60
2013,07,03,10,28,19.60
2013,07,03,10,29,19.50
2013,07,03,10,30,19.50
2013,07,03,10,31,19.50
2013,07,03,10,32,19.50
2013,07,03,10,33,19.60
2013,07,03,10,34,19.70
2013,07,03,10,35,19.90
2013,07,03,10,36,19.90
2013,07,03,10,37,19.90
2013,07,03,10,38,19.90
2013,07,03,10,39,19.90
2013,07,03,10,40,19.90
2013,07,03,10,41,19.90
2013,07,03,10,42,20.00
2013,07,03,10,43,20.20
2013,07,03,10,44,20.10
2013,07,03,10,45,20.10
2013,07,03,10,46,20.00
2013,07,03,10,47,20.10
2013,07,03,10,48,19.90
2013,07,03,10,49,19.90
2013,07,03,10,50,19.90
2013,07,03,10,51,19.90
2013,07,03,10,52,19.90
2013,07,03,10,53,19.90
2013,07,03,10,54,20.00
2013,07,03,10,55,20.10
2013,07,03,10,56,20.20
2013,07,03,10,57,20.30
2013,07,03,10,58,20.40
2013,07,03,10,59,20.50
2013,07,03,11,00,20.50
2013,07,03,11,01,20.60
2013,07,03,11,02,20.70
2013,07,03,11,03,20.80
2013,07,03,11,04,21.00
2013,07,03,11,05,20.90
2013,07,03,11,06,20.80
2013,07,03,11,07,20.80
2013,07,03,11,08,20.60
2013,07,03,11,09,20.50
2013,07,03,11,10,20.40
2013,07,03,11,11,20.40
2013,07,03,11,12,20.30
2013,07,03,11,13,20.40
2013,07,03,11,14,20.40
2013,07,03,11,15,20.40
2013,07,03,11,16,20.40
2013,07,03,11,17,20.50
2013,07,03,11,18,20.70
2013,07,03,11,19,20.80
2013,07,03,11,20,20.70
2013,07,03,11,21,20.70
2013,07,03,11,22,20.70
2013,07,03,11,23,20.80
2013,07,03,11,24,20.80
2013,07,03,11,25,20.80
2013,07,03,11,26,20.80
2013,07,03,11,27,20.80
2013,07,03,11,28,20.80
2013,07,03,11,29,20.80
2013,07,03,11,30,20.70
2013,07,03,11,31,20.70
2013,07,03,11,32,20.90
2013,07,03,11,33,21.00
2013,07,03,11,34,20.90
2013,07,03,11,35,20.90
2013,07,03,11,36,20.80
2013,07,03,11,37,20.80
2013,07,03,11,38,20.80
2013,07,03,11,39,20.90
2013,07,03,11,40,21.00
2013,07,03,11,41,21.10
2013,07,03,11,42,21.20
2013,07,03,11,43,21.10
2013,07,03,11,44,21.00
2013,07,03,11,45,21.00
2013,07,03,11,46,20.90
2013,07,03,11,47,20.90
2013,07,03,11,48,21.00
2013,07,03,11,49,21.10
2013,07,03,11,50,21.20
2013,07,03,11,51,21.20
2013,07,03,11,52,21.20
2013,07,03,11,53,21.20
2013,07,03,11,54,21.20
2013,07,03,11,55,21.30
2013,07,03,11,56,21.20
2013,07,03,11,57,21.20
2013,07,03,11,58,21.20
2013,07,03,11,59,21.20
2013,07,03,12,00,21.10
2013,07,03,12,01,21.20
2013,07,03,12,02,21.10
2013,07,03,12,03,21.00
2013,07,03,12,04,20.80
2013,07,03,12,05,20.70
2013,07,03,12,06,20.70
2013,07,03,12,07,20.70
2013,07,03,12,08,20.80
2013,07,03,12,09,20.90
2013,07,03,12,10,21.00
2013,07,03,12,11,21.10
2013,07,03,12,12,21.10
2013,07,03,12,13,21.20
2013,07,03,12,14,21.30
2013,07,03,12,15,21.30
2013,07,03,12,16,21.30
2013,07,03,12,17,21.40
2013,07,03,12,18,21.50
2013,07,03,12,19,21.60
2013,07,03,12,20,21.60
2013,07,03,12,21,21.50
2013,07,03,12,22,21.40
2013,07,03,12,23,21.40
2013,07,03,12,24,21.50
2013,07,03,12,25,21.60
2013,07,03,12,26,21.60
2013,07,03,12,27,21.60
2013,07,03,12,28,21.60
2013,07,03,12,29,21.60
2013,07,03,12,30,21.40
2013,07,03,12,31,21.50
2013,07,03,12,32,21.50
2013,07,03,12,33,21.50
2013,07,03,12,34,21.70
2013,07,03,12,35,21.90
2013,07,03,12,36,22.00
2013,07,03,12,37,21.90
2013,07,03,12,38,21.70
2013,07,03,12,39,21.60
2013,07,03,12,40,21.60
2013,07,03,12,41,21.60
2013,07,03,12,42,21.60
2013,07,03,12,43,21.70
2013,07,03,12,44,21.80
2013,07,03,12,45,21.70
2013,07,03,12,46,21.60
2013,07,03,12,47,21.70
2013,07,03,12,48,21.70
2013,07,03,12,49,21.70
2013,07,03,12,50,21.70
2013,07,03,12,51,21.60
2013,07,03,12,52,21.60
2013,07,03,12,53,21.50
2013,07,03,12,54,21.40
2013,07,03,12,55,21.40
2013,07,03,12,56,21.40
2013,07,03,12,57,21.20
2013,07,03,12,58,21.20
2013,07,03,12,59,21.30
2013,07,03,13,00,21.40
2013,07,03,13,01,21.30
2013,07,03,13,02,21.30
2013,07,03,13,03,21.40
2013,07,03,13,04,21.40
2013,07,03,13,05,21.50
2013,07,03,13,06,21.60
2013,07,03,13,07,21.60
2013,07,03,13,08,21.70
2013,07,03,13,09,21.70
2013,07,03,13,10,21.70
2013,07,03,13,11,21.60
2013,07,03,13,12,21.40
2013,07,03,13,13,21.60
2013,07,03,13,14,21.70
2013,07,03,13,15,21.60
2013,07,03,13,16,21.60
2013,07,03,13,17,21.50
2013,07,03,13,18,21.40
2013,07,03,13,19,21.30
2013,07,03,13,20,21.30
2013,07,03,13,21,21.30
2013,07,03,13,22,21.30
2013,07,03,13,23,21.50
2013,07,03,13,24,21.60
2013,07,03,13,25,21.60
2013,07,03,13,26,21.60
2013,07,03,13,27,21.60
2013,07,03,13,28,21.60
2013,07,03,13,29,21.60
2013,07,03,13,30,21.60
2013,07,03,13,31,21.50
2013,07,03,13,32,21.30
2013,07,03,13,33,21.30
2013,07,03,13,34,21.30
2013,07,03,13,35,21.20
2013,07,03,13,36,21.20
2013,07,03,13,37,21.30
2013,07,03,13,38,21.30
2013,07,03,13,39,21.40
2013,07,03,13,40,21.40
2013,07,03,13,41,21.30
2013,07,03,13,42,21.30
2013,07,03,13,43,21.40
2013,07,03,13,44,21.60
2013,07,03,13,45,21.70
2013,07,03,13,46,21.70
2013,07,03,13,47,21.70
2013,07,03,13,48,21.80
2013,07,03,13,49,21.80
2013,07,03,13,50,21.70
2013,07,03,13,51,21.60
2013,07,03,13,52,21.60
2013,07,03,13,53,21.60
2013,07,03,13,54,21.60
2013,07,03,13,55,21.60
2013,07,03,13,56,21.60
2013,07,03,13,57,21.60
2013,07,03,13,58,21.60
2013,07,03,13,59,21.50
2013,07,03,14,00,21.30
2013,07,03,14,01,21.20
2013,07,03,14,02,21.10
2013,07,03,14,03,21.10
2013,07,03,14,04,21.10
2013,07,03,14,05,21.20
2013,07,03,14,06,21.30
2013,07,03,14,07,21.40
2013,07,03,14,08,21.40
2013,07,03,14,09,21.40
2013,07,03,14,10,21.40
2013,07,03,14,11,21.20
2013,07,03,14,12,21.20
2013,07,03,14,13,21.30
2013,07,03,14,14,21.30
2013,07,03,14,15,21.30
2013,07,03,14,16,21.30
2013,07,03,14,17,21.10
2013,07,03,14,18,21.20
2013,07,03,14,19,21.20
2013,07,03,14,20,21.40
2013,07,03,14,21,21.40
2013,07,03,14,22,21.30
2013,07,03,14,23,21.30
2013,07,03,14,24,21.30
2013,07,03,14,25,21.20
2013,07,03,14,26,21.20
2013,07,03,14,27,21.30
2013,07,03,14,28,21.30
2013,07,03,14,29,21.30
2013,07,03,14,30,21.40
2013,07,03,14,31,21.40
2013,07,03,14,32,21.40
2013,07,03,14,33,21.40
2013,07,03,14,34,21.30
2013,07,03,14,35,21.20
2013,07,03,14,36,21.20
2013,07,03,14,37,21.20
2013,07,03,14,38,21.30
2013,07,03,14,39,21.30
2013,07,03,14,40,21.30
2013,07,03,14,41,21.40
2013,07,03,14,42,21.50
2013,07,03,14,43,21.40
2013,07,03,14,44,21.40
2013,07,03,14,45,21.40
2013,07,03,14,46,21.40
2013,07,03,14,47,21.40
2013,07,03,14,48,21.50
2013,07,03,14,49,21.50
2013,07,03,14,50,21.30
2013,07,03,14,51,21.30
2013,07,03,14,52,21.30
2013,07,03,14,53,21.30
2013,07,03,14,54,21.30
2013,07,03,14,55,21.30
2013,07,03,14,56,21.30
2013,07,03,14,57,21.40
2013,07,03,14,58,21.40
2013,07,03,14,59,21.40
2013,07,03,15,00,21.30
2013,07,03,15,01,21.40
2013,07,03,15,02,21.50
2013,07,03,15,03,21.60
2013,07,03,15,04,21.60
2013,07,03,15,05,21.40
2013,07,03,15,06,21.30
2013,07,03,15,07,21.40
2013,07,03,15,08,21.40
2013,07,03,15,09,21.30
2013,07,03,15,10,21.30
2013,07,03,15,11,21.30
2013,07,03,15,12,21.30
2013,07,03,15,13,21.30
2013,07,03,15,14,21.40
2013,07,03,15,15,21.40
2013,07,03,15,16,21.50
2013,07,03,15,17,21.60
2013,07,03,15,18,21.60
2013,07,03,15,19,21.60
2013,07,03,15,20,21.60
2013,07,03,15,21,21.70
2013,07,03,15,22,21.70
2013,07,03,15,23,21.80
2013,07,03,15,24,21.90
2013,07,03,15,25,22.10
2013,07,03,15,26,22.10
2013,07,03,15,27,21.90
2013,07,03,15,28,21.70
2013,07,03,15,29,21.60
2013,07,03,15,30,21.60
2013,07,03,15,31,21.60
2013,07,03,15,32,21.60
2013,07,03,15,33,21.60
2013,07,03,15,34,21.60
2013,07,03,15,35,21.70
2013,07,03,15,36,21.80
2013,07,03,15,37,21.90
2013,07,03,15,38,21.90
2013,07,03,15,39,21.90
2013,07,03,15,40,22.10
2013,07,03,15,41,22.20
2013,07,03,15,42,22.30
2013,07,03,15,43,22.20
2013,07,03,15,44,22.00
2013,07,03,15,45,21.90
2013,07,03,15,46,21.80
2013,07,03,15,47,21.80
2013,07,03,15,48,21.80
2013,07,03,15,49,21.90
2013,07,03,15,50,22.00
2013,07,03,15,51,22.10
2013,07,03,15,52,22.10
2013,07,03,15,53,22.10
2013,07,03,15,54,22.10
2013,07,03,15,55,22.00
2013,07,03,15,56,22.00
2013,07,03,15,57,22.00
2013,07,03,15,58,22.00
2013,07,03,15,59,22.00
2013,07,03,16,00,22.10
2013,07,03,16,01,22.20
2013,07,03,16,02,22.20
2013,07,03,16,03,22.00
2013,07,03,16,04,22.00
2013,07,03,16,05,22.10
2013,07,03,16,06,22.20
2013,07,03,16,07,22.30
2013,07,03,16,08,22.30
2013,07,03,16,09,22.30
2013,07,03,16,10,22.30
2013,07,03,16,11,22.30
2013,07,03,16,12,22.30
2013,07,03,16,13,22.20
2013,07,03,16,14,22.30
2013,07,03,16,15,22.40
2013,07,03,16,16,22.40
2013,07,03,16,17,22.40
2013,07,03,16,18,22.40
2013,07,03,16,19,22.40
2013,07,03,16,20,22.50
2013,07,03,16,21,22.60
2013,07,03,16,22,22.80
2013,07,03,16,23,22.90
2013,07,03,16,24,23.00
2013,07,03,16,25,23.20
2013,07,03,16,26,23.30
2013,07,03,16,27,23.30
2013,07,03,16,28,23.30
2013,07,03,16,29,23.30
2013,07,03,16,30,23.40
2013,07,03,16,31,23.40
2013,07,03,16,32,23.40
2013,07,03,16,33,23.30
2013,07,03,16,34,23.30
2013,07,03,16,35,23.40
2013,07,03,16,36,23.50
2013,07,03,16,37,23.60
2013,07,03,16,38,23.60
2013,07,03,16,39,23.50
2013,07,03,16,40,23.40
2013,07,03,16,41,23.50
2013,07,03,16,42,23.50
2013,07,03,16,43,23.50
2013,07,03,16,44,23.60
2013,07,03,16,45,23.70
2013,07,03,16,46,23.80
2013,07,03,16,47,23.80
2013,07,03,16,48,23.70
2013,07,03,16,49,23.70
2013,07,03,16,50,23.70
2013,07,03,16,51,23.80
2013,07,03,16,52,23.80
2013,07,03,16,53,23.80
2013,07,03,16,54,23.70
2013,07,03,16,55,23.60
2013,07,03,16,56,23.40
2013,07,03,16,57,23.30
2013,07,03,16,58,23.30
2013,07,03,16,59,23.30
2013,07,03,17,00,23.40
2013,07,03,17,01,23.40
2013,07,03,17,02,23.40
2013,07,03,17,03,23.40
2013,07,03,17,04,23.40
2013,07,03,17,05,23.40
2013,07,03,17,06,23.40
2013,07,03,17,07,23.50
2013,07,03,17,08,23.60
2013,07,03,17,09,23.70
2013,07,03,17,10,23.80
2013,07,03,17,11,23.90
2013,07,03,17,12,24.00
2013,07,03,17,13,24.10
2013,07,03,17,14,24.10
2013,07,03,17,15,24.30
2013,07,03,17,16,24.40
2013,07,03,17,17,24.50
2013,07,03,17,18,24.60
2013,07,03,17,19,24.70